FW5431 Weather Reports


Display with metric or nautical units.
time (UTC)temp
F
wind
direction
speed
MPH
gust
MPH
rain 1hr
in
rain 24hr
in
rain mn
in
humidity
%
barometer
mb
20260903030057 62 250 0.0 0.0 0.00 0.00 0.00 100 1019.2
20260903030002 62 250 0.0 0.0 0.00 0.00 0.00 100 1019.2
20260903024557 62 250 0.0 1.0 0.00 0.00 0.00 100 1019.3
20260903023057 62 250 1.0 3.0 0.00 0.00 0.00 100 1019.4
20260903021558 62 250 1.0 3.0 0.00 0.00 0.00 100 1019.5
20260903020059 62 250 0.0 3.0 0.00 0.00 0.00 100 1019.6
20260903014623 62 248 0.0 3.0 0.00 0.00 0.00 100 1019.7
20260903013107 62 218 2.0 3.0 0.00 0.00 0.00 100 1019.7
20260903011557 62 82 0.0 1.0 0.00 0.00 0.00 100 1019.9
20260903010057 62 82 0.0 2.0 0.00 0.00 0.00 100 1019.9
20260903004600 63 82 0.0 1.0 0.00 0.00 0.00 100 1019.9
20260903003112 63 82 0.0 2.0 0.00 0.00 0.00 100 1019.8
20260903001557 63 82 0.0 1.0 0.00 0.00 0.00 100 1019.7
20260903000107 63 82 0.0 1.0 0.00 0.00 0.00 100 1019.8
20260903000001 63 82 0.0 1.0 0.00 0.00 0.00 100 1019.8
20260902234604 64 82 1.0 2.0 0.00 0.00 0.00 100 1019.8
20260902233057 64 82 1.0 3.0 0.00 0.00 0.00 100 1019.7
20260902231557 64 83 1.0 4.0 0.00 0.00 0.00 100 1019.7
20260902230110 64 73 1.0 4.0 0.00 0.00 0.00 100 1019.6
20260902224612 64 74 4.0 8.0 0.00 0.00 0.00 100 1019.4
20260902223111 65 96 2.0 3.0 0.00 0.00 0.00 100 1019.4
20260902221605 65 103 2.0 6.0 0.00 0.00 0.00 100 1019.3
20260902220057 65 43 3.0 7.0 0.00 0.00 0.00 100 1019.2
20260902214620 65 74 1.0 6.0 0.00 0.00 0.00 100 1018.9
20260902213057 66 96 3.0 9.0 0.00 0.00 0.00 100 1018.7
20260902211557 66 17 1.0 6.0 0.00 0.00 0.00 100 1018.7
20260902210057 67 70 2.0 12.0 0.00 0.00 0.00 100 1018.6
20260902204606 67 90 3.0 10.0 0.00 0.00 0.00 100 1018.4
20260902203057 68 88 4.0 7.0 0.00 0.00 0.00 100 1018.2
20260902201623 69 28 3.0 8.0 0.00 0.00 0.00 100 1018.1
20260902200057 69 77 4.0 10.0 0.00 0.00 0.00 100 1017.8
20260902194557 69 104 4.0 12.0 0.00 0.00 0.00 100 1017.8
20260902193100 70 43 7.0 12.0 0.00 0.00 0.00 100 1017.7
20260902191557 71 98 7.0 14.0 0.00 0.00 0.00 100 1017.5
20260902190057 72 99 5.0 9.0 0.00 0.00 0.00 100 1017.4
20260902184557 71 47 3.0 11.0 0.00 0.00 0.00 100 1017.4
20260902183057 71 34 5.0 10.0 0.00 0.00 0.00 100 1017.4
20260902181602 73 79 7.0 12.0 0.00 0.00 0.00 100 1017.4
20260902180058 73 355 5.0 13.0 0.00 0.00 0.00 100 1017.2
20260902174558 74 63 5.0 12.0 0.00 0.00 0.00 100 1017.2
20260902173057 74 27 4.0 12.0 0.00 0.00 0.00 100 1017.3
20260902171557 74 27 5.0 11.0 0.00 0.00 0.00 100 1017.4
20260902170100 75 344 3.0 7.0 0.00 0.00 0.00 100 1017.5
20260902164558 74 7 1.0 7.0 0.00 0.00 0.00 100 1017.7
20260902163057 74 56 3.0 7.0 0.00 0.00 0.00 100 1018.0
20260902161557 74 39 3.0 7.0 0.00 0.00 0.00 100 1018.3
20260902160057 74 35 3.0 7.0 0.00 0.00 0.00 100 1018.4
20260902154556 73 89 3.0 7.0 0.00 0.00 0.00 100 1018.7
20260902153057 72 96 3.0 7.0 0.00 0.00 0.00 100 1018.9
20260902151600 73 74 1.0 7.0 0.00 0.00 0.00 100 1019.1
20260902150058 72 86 2.0 5.0 0.00 0.00 0.00 100 1019.1
20260902144600 72 18 2.0 4.0 0.00 0.00 0.00 100 1019.2
20260902143057 72 108 1.0 5.0 0.00 0.00 0.00 100 1019.4
20260902141601 72 12 3.0 7.0 0.00 0.00 0.00 100 1019.6
20260902140106 71 57 3.0 6.0 0.00 0.00 0.00 100 1019.6
20260902134559 70 71 3.0 5.0 0.00 0.00 0.00 100 1019.7
20260902133104 70 169 3.0 8.0 0.00 0.00 0.00 100 1019.6
20260902131601 69 144 1.0 4.0 0.00 0.00 0.00 100 1019.7
20260902130100 68 332 1.0 6.0 0.00 0.00 0.00 100 1019.8
20260902124557 68 204 2.0 4.0 0.00 0.00 0.00 100 1019.6
20260902123102 67 44 0.0 4.0 0.00 0.00 0.00 100 1019.6
20260902121607 66 67 1.0 3.0 0.00 0.00 0.00 100 1019.5
20260902120057 65 304 1.0 3.0 0.00 0.00 0.00 100 1019.4
20260902114557 65 1 0.0 3.0 0.00 0.00 0.00 100 1019.3
20260902113104 64 311 1.0 6.0 0.00 0.00 0.00 100 1019.1
20260902111559 63 93 1.0 4.0 0.00 0.00 0.00 100 1019.0
20260902110059 62 67 2.0 5.0 0.00 0.00 0.00 100 1018.8
20260902104610 62 49 2.0 4.0 0.00 0.00 0.00 100 1018.5
20260902103104 62 42 1.0 4.0 0.00 0.00 0.00 100 1018.3
20260902101556 61 51 2.0 4.0 0.00 0.00 0.00 100 1018.1
20260902100100 61 92 2.0 4.0 0.00 0.00 0.00 100 1018.1
20260902094559 62 27 3.0 5.0 0.00 0.00 0.00 100 1017.9
20260902093057 62 82 1.0 4.0 0.00 0.00 0.00 100 1017.5
20260902091606 62 47 0.0 3.0 0.00 0.00 0.00 100 1017.4
20260902090104 62 252 0.0 1.0 0.00 0.00 0.00 100 1017.2
20260902084605 62 253 0.0 2.0 0.00 0.00 0.00 100 1017.0
20260902083113 62 253 0.0 1.0 0.00 0.00 0.00 100 1016.8
20260902081557 62 253 0.0 0.0 0.00 0.00 0.00 100 1016.8
20260902080058 62 253 0.0 1.0 0.00 0.00 0.00 100 1016.8
20260902074609 62 253 0.0 0.0 0.00 0.00 0.00 100 1016.7
20260902073058 62 253 0.0 1.0 0.00 0.00 0.00 100 1016.5
20260902071557 61 253 1.0 2.0 0.00 0.00 0.00 100 1016.6
20260902070056 61 253 0.0 2.0 0.00 0.00 0.00 100 1016.5
20260902064557 61 252 0.0 0.0 0.00 0.00 0.00 100 1016.7
20260902063057 62 252 0.0 0.0 0.00 0.00 0.00 100 1016.6
20260902061557 62 252 0.0 0.0 0.00 0.00 0.00 100 1016.7
20260902060105 62 252 0.0 0.0 0.00 0.00 0.00 100 1016.8
20260902054607 62 252 0.0 0.0 0.00 0.00 0.00 100 1016.9
20260902053111 62 252 0.0 0.0 0.00 0.00 0.00 100 1016.8
20260902051609 62 252 0.0 0.0 0.00 0.00 0.00 100 1016.8
20260902050100 62 252 0.0 0.0 0.00 0.00 0.00 100 1016.8
20260902044556 62 252 0.0 0.0 0.00 0.00 0.00 100 1017.0
20260902043117 62 252 0.0 0.0 0.00 0.00 0.00 100 1017.0
20260902041557 62 252 0.0 1.0 0.00 0.00 0.00 100 1017.1
20260902040056 62 252 0.0 2.0 0.00 0.00 0.00 100 1017.0
20260902040001 62 252 0.0 2.0 0.00 0.00 0.00 100 1017.0
20260902034558 62 252 0.0 1.0 0.00 0.00 0.00 100 1016.9
20260902033058 62 252 0.0 2.0 0.00 0.00 0.00 100 1016.8
20260902031558 62 252 0.0 2.0 0.00 0.00 0.00 100 1016.6